This is the latest recevied weather packets stored in our database for station/object SQ9CIE-4. If no packets are shown the sender has not sent any weather packets the latest 1 day(s).
| Time | Temp. | Humidity | Pressure | Rain* | Wind** | Luminosity | Snow |
|---|---|---|---|---|---|---|---|
| 1778001658 | 23.89° C | 24% | 1005 hPa | 0 mm | 4.92 m/s, 201° | 27 W/m² | - |
| 1778001358 | 23.89° C | 24% | 1005 hPa | 0 mm | 3.58 m/s, 196° | 32 W/m² | - |
| 1778001058 | 23.89° C | 23% | 1005 hPa | 0 mm | 6.26 m/s, 203° | 38 W/m² | - |
| 1778000758 | 23.89° C | 23% | 1005 hPa | 0 mm | 5.81 m/s, 208° | 43 W/m² | - |
| 1778000458 | 23.89° C | 23% | 1004.9 hPa | 0 mm | 4.02 m/s, 218° | 50 W/m² | - |
| 1778000158 | 23.89° C | 23% | 1004.9 hPa | 0 mm | 5.81 m/s, 202° | 54 W/m² | - |
| 1777999858 | 23.89° C | 23% | 1005.1 hPa | 0 mm | 2.68 m/s, 230° | 60 W/m² | - |
| 1777999558 | 25° C | 23% | 1005.1 hPa | 0 mm | 5.36 m/s, 231° | 67 W/m² | - |
| 1777999258 | 25° C | 22% | 1005.2 hPa | 0 mm | 7.15 m/s, 205° | 76 W/m² | - |
| 1777998958 | 25° C | 22% | 1004.9 hPa | 0 mm | 4.02 m/s, 176° | 84 W/m² | - |
| 1777998658 | 25° C | 22% | 1004.9 hPa | 0 mm | 3.58 m/s, 199° | 92 W/m² | - |
| 1777998358 | 25° C | 21% | 1004.9 hPa | 0 mm | 5.36 m/s, 205° | 101 W/m² | - |
| 1777998058 | 25° C | 20% | 1004.8 hPa | 0 mm | 7.6 m/s, 216° | 110 W/m² | - |
| 1777997758 | 25° C | 20% | 1004.9 hPa | 0 mm | 7.6 m/s, 255° | 128 W/m² | - |
| 1777997458 | 26.11° C | 18% | 1004.8 hPa | 0 mm | 8.05 m/s, 200° | 141 W/m² | - |
| 1777997158 | 26.11° C | 20% | 1004.7 hPa | 0 mm | 3.58 m/s, 218° | 152 W/m² | - |
| 1777996858 | 26.11° C | 19% | 1004.7 hPa | 0 mm | 6.26 m/s, 198° | 164 W/m² | - |
| 1777996558 | 26.11° C | 20% | 1004.8 hPa | 0 mm | 6.71 m/s, 213° | 182 W/m² | - |
| 1777996258 | 26.11° C | 19% | 1004.8 hPa | 0 mm | 6.26 m/s, 214° | 196 W/m² | - |
| 1777995958 | 26.11° C | 19% | 1004.6 hPa | 0 mm | 6.26 m/s, 232° | 218 W/m² | - |
| 1777995658 | 26.11° C | 19% | 1004.7 hPa | 0 mm | 8.49 m/s, 230° | 234 W/m² | - |
| 1777995358 | 26.11° C | 21% | 1004.7 hPa | 0 mm | 7.6 m/s, 212° | 251 W/m² | - |
| 1777995058 | 26.11° C | 21% | 1004.6 hPa | 0 mm | 6.71 m/s, 237° | 259 W/m² | - |
| 1777994758 | 26.11° C | 23% | 1004.9 hPa | 0 mm | 4.47 m/s, 209° | 277 W/m² | - |
| 1777994458 | 26.11° C | 22% | 1004.7 hPa | 0 mm | 7.6 m/s, 187° | 289 W/m² | - |
* Rain latest hour (hover to see other rain measurements)
** Current wind speed in m/s (hover to see current wind gust speed)